[[{"header":{"parameterUnit":"m.s-1","parameterCategory":2,"la1":30.2991,"la2":30.254,"lo1":-89.0895,"lo2":-89.0444,"dy":0.0017,"dx":0.0017,"nx":28,"ny":28,"refTime":"2025-05-27T09:00:00:Z","depth":"0","parameterNumber":2,"parameterNumberName":"U-component_of_CURRENTS"},"data":[0,0,0,0,0,0,0,0,0,0,0,0,0,0,0,0,0,0,0,0,0,0,0,0,0,0,0,0,0,0,0,0,0,0,0,0,0,0,0,0,0,0,0,0,0,0,0,0,0,0,0,0,0,0,0,0,0,0,0.2145,0.2146,0,0.2217,0.2218,0.2218,0.2223,0.2222,0.2222,0.2221,0.223,0.2231,0.2231,0,0,0,0,0,0,0,0,0,0,0,0,0,0.1987,0.1989,0.2145,0.2146,0.2147,0.2217,0.2218,0.2218,0.2223,0.2222,0.2222,0.2221,0.223,0.223,0.2231,0,0,0,0,0,0,0,0,0,0,0,0,0,0.2054,0.199,0.2145,0.216,0.2163,0.2217,0.2218,0.2219,0.2223,0.2222,0.2222,0.2221,0.2229,0.223,0.2231,0.2254,0,0,0.2235,0.2235,0,0,0,0,0,0,0,0,0.205,0.2059,0.2157,0.2159,0.2162,0.2213,0.2165,0.2228,0.2223,0.2197,0.2221,0.2221,0.2221,0.2223,0.2234,0.2254,0.2254,0.2235,0.2235,0.2236,0.2236,0,0,0,0,0,0,0,0.2045,0.2056,0.217,0.2158,0.2162,0.2156,0.2164,0.2177,0.2209,0.2199,0.22,0.2214,0.2221,0.2233,0.2234,0.2254,0.2235,0.2236,0.2236,0.2237,0.2279,0.228,0,0,0,0,0,0,0.2046,0.2052,0.2168,0.2173,0.2107,0.216,0.2169,0.2195,0.221,0.2213,0.2214,0.2214,0.2232,0.2233,0.2235,0.2272,0.2236,0.2237,0.2237,0.2279,0.2279,0.228,0,0,0,0,0,0,0.2042,0.2056,0.2165,0.2115,0.2129,0.2164,0.2192,0.2197,0.2207,0.2223,0.2224,0.222,0.2231,0.2233,0.2248,0.2272,0.2237,0.2238,0.2278,0.2279,0.228,0.2341,0,0,0,0,0,0,0.2038,0.2055,0.207,0.2116,0.2132,0.2197,0.2194,0.2199,0.2218,0.2218,0.2228,0.2229,0.2231,0.2246,0.2249,0.2273,0.2239,0.2278,0.2278,0.2279,0.2338,0.2343,0.2348,0,0,0,0,0,0.2032,0.2061,0.207,0.2084,0.2154,0.2198,0.2205,0.2223,0.2219,0.2228,0.2235,0.2228,0.2253,0.2248,0.2251,0.2276,0.2277,0.2278,0.2279,0.2336,0.2342,0.2348,0,0,0,0,0,0,0.2004,0.2066,0.2077,0.2124,0.2157,0.22,0.2217,0.2225,0.2239,0.2237,0.224,0.2241,0.2264,0.2256,0.225,0.2287,0.2262,0.2264,0.2304,0.231,0.2315,0.2399,0.224,0,0,0,0,0,0.2006,0.2043,0.2092,0.2129,0.2147,0.2179,0.2198,0.2211,0.2234,0.224,0.2248,0.2255,0.2273,0.2279,0.2289,0.2312,0.2415,0.2326,0.2331,0.2336,0.2404,0.26,0.2632,0.2284,0.2283,0.2283,0,0,0.2007,0.2046,0.2066,0.2125,0.2153,0.2181,0.2188,0.2222,0.2246,0.2239,0.2266,0.2275,0.2282,0.2311,0.232,0.2307,0.2477,0.2337,0.2341,0.2409,0.2605,0.264,0.2672,0.2284,0.2284,0.2284,0,0,0.2021,0.2061,0.2089,0.2116,0.2161,0.2186,0.2194,0.2235,0.2254,0.2274,0.2288,0.2331,0.2317,0.237,0.2382,0.2424,0.2499,0.2391,0.2491,0.2678,0.2711,0.2741,0.2883,0.2926,0.2393,0.2393,0.2393,0,0.2016,0.2068,0.2102,0.213,0.2165,0.2186,0.2221,0.2242,0.228,0.2332,0.228,0.238,0.2363,0.2479,0.2481,0.2445,0.2554,0.2466,0.2694,0.2726,0.2756,0.2895,0.2942,0.2396,0.2396,0.2396,0.2395,0,0.2047,0.2086,0.2107,0.2154,0.2188,0.2226,0.2265,0.2302,0.2314,0.2355,0.2459,0.2473,0.2557,0.253,0.251,0.2707,0.2714,0.2683,0.2695,0.2797,0.2933,0.2981,0.2401,0.24,0.2399,0.2398,0,0,0.2051,0.2118,0.2122,0.2174,0.2213,0.2266,0.2305,0.2397,0.2495,0.2503,0.2653,0.2665,0.2722,0.2746,0.2753,0.2893,0.3149,0.2881,0.289,0.3053,0.3569,0.343,0.3468,0.3175,0.3184,0.3192,0.3568,0,0.207,0.2147,0.2162,0.2244,0.2305,0.2343,0.2412,0.2494,0.2553,0.2694,0.2758,0.2879,0.2787,0.2865,0.2989,0.3116,0.3284,0.305,0.3422,0.3433,0.3325,0.3523,0.346,0.378,0.3615,0.3623,0.3629,0,0.2106,0.2161,0.2252,0.2372,0.2404,0.2453,0.2629,0.2684,0.2853,0.2915,0.3047,0.3106,0.3298,0.3211,0.3534,0.3395,0.3516,0.3601,0.3617,0.3521,0.3387,0.3656,0.3874,0.3784,0.3703,0.3697,0.3691,0,0.2178,0.2237,0.2334,0.2364,0.2484,0.256,0.2625,0.2776,0.2869,0.3096,0.3206,0.3413,0.3544,0.3737,0.3808,0.3744,0.4162,0.409,0.4098,0.4087,0.4128,0.4103,0.4341,0.441,0.441,0.4409,0.4407,0,0.2254,0.2347,0.2383,0.2461,0.2596,0.2649,0.2822,0.2922,0.3089,0.3237,0.3347,0.3509,0.3695,0.3881,0.3966,0.4153,0.4294,0.4207,0.4217,0.4131,0.4104,0.4095,0.4025,0.4423,0.4419,0.4417,0.4414,0,0.2421,0.2417,0.2552,0.2642,0.2655,0.2784,0.2891,0.303,0.3165,0.3368,0.3453,0.3668,0.3924,0.4054,0.4375,0.4347,0.4448,0.457,0.441,0.4394,0.4271,0.4204,0.4308,0.4202,0.4722,0.4721,0.4721,0,0.2563,0.2627,0.2689,0.2731,0.2788,0.2904,0.2988,0.3084,0.3197,0.3437,0.3557,0.3839,0.3987,0.434,0.4448,0.4647,0.4501,0.4655,0.4515,0.4336,0.4276,0.403,0.3914,0.4605,0.4604,0.4603,0.4602,0,0.2815,0.2808,0.2884,0.2929,0.2996,0.3049,0.3145,0.3208,0.3332,0.3465,0.3632,0.376,0.4105,0.4265,0.448,0.4575,0.4447,0.4633,0.4568,0.433,0.3979,0.3852,0.4231,0.4592,0.4593,0.4594,0.4594,0.4594,0.2988,0.3056,0.3059,0.3106,0.315,0.3141,0.3149,0.3222,0.3299,0.3412,0.3588,0.3732,0.4061,0.4363,0.4413,0.4485,0.4399,0.445,0.4432,0.4232,0.3984,0.4279,0.453,0.4531,0.4531,0.4532,0.4532,0,0.311,0.312,0.3206,0.3184,0.3194,0.3186,0.3206,0.3171,0.3168,0.3343,0.3426,0.3714,0.3943,0.4186,0.4397,0.4308,0.4124,0.4242,0.3976,0.3909,0.4357,0.4198,0.424,0.424,0.424,0.424,0.424,0.424,0.3164,0.3202,0.3192,0.3159,0.3143,0.3071,0.3027,0.299,0.3056,0.3126,0.3251,0.3419,0.38,0.4217,0.4287,0.4209,0.3902,0.3774,0.3693,0.4096,0.4114,0.4131,0.3968,0.3961,0.3961,0.3133,0.3128,0.3123]},{"header":{"parameterUnit":"m.s-1","parameterCategory":2,"la1":30.2991,"la2":30.254,"lo1":-89.0895,"lo2":-89.0444,"dy":0.0017,"dx":0.0017,"nx":28,"ny":28,"refTime":"2025-05-27T09:00:00:Z","depth":"0","parameterNumber":3,"parameterNumberName":"V-component_of_CURRENTS"},"data":[0,0,0,0,0,0,0,0,0,0,0,0,0,0,0,0,0,0,0,0,0,0,0,0,0,0,0,0,0,0,0,0,0,0,0,0,0,0,0,0,0,0,0,0,0,0,0,0,0,0,0,0,0,0,0,0,0,0,-0.0392,-0.0393,0,-0.041,-0.0411,-0.0411,-0.0447,-0.0448,-0.0448,-0.0449,-0.0455,-0.0454,-0.0454,0,0,0,0,0,0,0,0,0,0,0,0,0,-0.0358,-0.0358,-0.0392,-0.0393,-0.0393,-0.041,-0.0411,-0.0411,-0.0447,-0.0448,-0.0449,-0.045,-0.0455,-0.0454,-0.0454,0,0,0,0,0,0,0,0,0,0,0,0,0,-0.0373,-0.0359,-0.0392,-0.0414,-0.0417,-0.041,-0.0411,-0.0411,-0.0446,-0.0448,-0.0449,-0.045,-0.0455,-0.0454,-0.0453,-0.0421,0,0,-0.045,-0.045,0,0,0,0,0,0,0,0,-0.0372,-0.0374,-0.0411,-0.0413,-0.0415,-0.0429,-0.0401,-0.0414,-0.0446,-0.0433,-0.0449,-0.0451,-0.0445,-0.0445,-0.0443,-0.0422,-0.0422,-0.045,-0.045,-0.0449,-0.0449,0,0,0,0,0,0,0,-0.0371,-0.0373,-0.0398,-0.0411,-0.0414,-0.0413,-0.0417,-0.0403,-0.043,-0.0434,-0.0438,-0.0442,-0.0446,-0.0444,-0.0444,-0.0422,-0.045,-0.0449,-0.0449,-0.0448,-0.0369,-0.0368,0,0,0,0,0,0,-0.0372,-0.0372,-0.0397,-0.0398,-0.0398,-0.0413,-0.0417,-0.0422,-0.0431,-0.0434,-0.0441,-0.0443,-0.0445,-0.0445,-0.0444,-0.0383,-0.0449,-0.0448,-0.0448,-0.0371,-0.0369,-0.0367,0,0,0,0,0,0,-0.0371,-0.0374,-0.0396,-0.0387,-0.039,-0.0412,-0.0418,-0.0422,-0.0422,-0.0436,-0.0439,-0.0438,-0.0446,-0.0446,-0.0432,-0.0385,-0.0448,-0.0447,-0.0373,-0.037,-0.0368,-0.0277,0,0,0,0,0,0,-0.037,-0.0374,-0.0371,-0.0387,-0.0391,-0.0388,-0.0417,-0.0421,-0.0424,-0.0427,-0.0434,-0.0436,-0.0447,-0.0433,-0.0431,-0.0385,-0.0446,-0.0374,-0.0372,-0.0369,-0.0282,-0.0272,-0.0263,0,0,0,0,0,-0.0369,-0.0361,-0.0371,-0.0374,-0.0389,-0.0387,-0.0388,-0.0408,-0.0422,-0.0414,-0.0422,-0.0436,-0.0414,-0.0431,-0.0429,-0.0381,-0.0376,-0.0372,-0.0369,-0.0286,-0.0274,-0.0263,0,0,0,0,0,0,-0.0342,-0.0365,-0.0376,-0.0375,-0.0379,-0.0394,-0.0389,-0.04,-0.04,-0.0404,-0.042,-0.0421,-0.0395,-0.0401,-0.042,-0.0352,-0.0395,-0.0391,-0.0332,-0.0321,-0.0312,-0.022,-0.0445,0,0,0,0,0,-0.0335,-0.034,-0.0355,-0.0353,-0.0353,-0.0368,-0.0369,-0.038,-0.0386,-0.0388,-0.0394,-0.0392,-0.0376,-0.0362,-0.0362,-0.0316,-0.0286,-0.0284,-0.0275,-0.0267,-0.0191,-0.0123,-0.0099,-0.0356,-0.0356,-0.0356,0,0,-0.0327,-0.0338,-0.0342,-0.0348,-0.0353,-0.0336,-0.0371,-0.0368,-0.0339,-0.0385,-0.0352,-0.0368,-0.0363,-0.0323,-0.0308,-0.0319,-0.0187,-0.0262,-0.0255,-0.0182,-0.0117,-0.0091,-0.0068,-0.0354,-0.0354,-0.0355,0,0,-0.0309,-0.0318,-0.0315,-0.0311,-0.0316,-0.0314,-0.031,-0.0319,-0.0307,-0.0288,-0.0304,-0.0271,-0.0279,-0.0232,-0.0216,-0.0146,-0.0154,-0.0174,-0.0031,0.0032,0.0055,0.0076,0.0111,0.0134,-0.0153,-0.0153,-0.0153,0,-0.0297,-0.0278,-0.031,-0.0297,-0.0261,-0.0299,-0.0252,-0.0253,-0.0254,-0.019,-0.027,-0.0184,-0.0214,-0.0079,-0.0074,-0.0115,-0.0099,-0.0078,0.0049,0.007,0.009,0.0121,0.0146,-0.0148,-0.0148,-0.0149,-0.0149,0,-0.0275,-0.0244,-0.0235,-0.022,-0.0197,-0.0159,-0.0154,-0.0117,-0.0117,-0.0094,0.0008,-0.0022,0.0061,0.0028,-0.001,0.0138,0.0093,0.0037,0.0027,0.0123,0.0147,0.0171,-0.0141,-0.0143,-0.0144,-0.0145,0,0,-0.025,-0.022,-0.021,-0.0132,-0.0129,-0.0075,-0.0025,0.0078,0.0197,0.0157,0.0324,0.0309,0.0321,0.0344,0.0312,0.0356,0.0453,0.0262,0.0263,0.0312,0.0579,0.0485,0.0501,0.0406,0.0412,0.0416,0.0527,0,-0.0194,-0.0105,-0.0123,0.0012,0.0098,0.0111,0.0196,0.0275,0.0325,0.0459,0.0472,0.0578,0.0431,0.0494,0.0512,0.048,0.0528,0.0429,0.0471,0.0474,0.0392,0.0532,0.0502,0.0594,0.055,0.0554,0.0557,0,-0.0119,-0.0057,0.0083,0.025,0.0288,0.0351,0.0578,0.0638,0.0778,0.0822,0.0917,0.0908,0.1001,0.0837,0.0871,0.0806,0.0729,0.0671,0.0672,0.0594,0.0429,0.0499,0.064,0.0365,0.0594,0.0591,0.0588,0,0.0048,0.0134,0.0286,0.0326,0.0453,0.0563,0.0642,0.0785,0.0909,0.1083,0.12,0.1258,0.1336,0.1249,0.1076,0.1,0.108,0.0959,0.0818,0.0807,0.0807,0.0787,0.0716,0.1027,0.1027,0.1026,0.1026,0,0.0205,0.0348,0.0387,0.0491,0.0698,0.0737,0.0978,0.1067,0.1234,0.142,0.1416,0.1581,0.1443,0.1433,0.1228,0.1103,0.1202,0.0917,0.0866,0.0827,0.0809,0.0585,0.0437,0.103,0.1029,0.1029,0.1028,0,0.0444,0.045,0.0638,0.0755,0.0796,0.0964,0.1133,0.1308,0.1446,0.1691,0.1762,0.1877,0.1883,0.1697,0.1587,0.1341,0.105,0.1119,0.1061,0.1002,0.0583,0.0442,0.0445,0.0294,0.1027,0.1026,0.1025,0,0.0606,0.071,0.082,0.0892,0.0957,0.1146,0.1273,0.1409,0.1576,0.1863,0.2008,0.2126,0.221,0.2013,0.1644,0.1346,0.1083,0.1083,0.0942,0.0626,0.0433,0.0355,0.0221,0.0963,0.0961,0.096,0.0959,0,0.0884,0.089,0.0996,0.1108,0.1233,0.1385,0.1569,0.1712,0.1895,0.2098,0.2346,0.245,0.2334,0.2078,0.1677,0.1414,0.0877,0.1049,0.0776,0.0457,0.0329,0.0134,0.0783,0.0949,0.095,0.0951,0.0952,0.0952,0.1054,0.1144,0.1194,0.1322,0.1439,0.1589,0.1729,0.1908,0.2144,0.2428,0.2529,0.2718,0.2385,0.1878,0.1495,0.0778,0.0819,0.0538,0.042,0.0392,0.0177,0.0784,0.0834,0.0834,0.0835,0.0835,0.0835,0,0.1209,0.1257,0.1388,0.1499,0.1633,0.1666,0.1896,0.2032,0.2263,0.2537,0.2729,0.2707,0.2169,0.1632,0.0726,0.0225,0.0035,-0.0047,-0.0163,-0.0255,0.0348,0.0264,0.0128,0.0129,0.0129,0.0129,0.0129,0.013,0.1274,0.1383,0.1424,0.1616,0.1707,0.1889,0.2003,0.22,0.2418,0.2714,0.2884,0.3038,0.2667,0.1036,-0.0116,-0.0379,-0.0751,-0.0761,-0.0966,-0.0598,-0.0553,-0.051,-0.0625,-0.0945,-0.0946,-0.1524,-0.1531,-0.1535]}],[{"header":{"parameterUnit":"m.s-1","parameterCategory":2,"la1":30.2991,"la2":30.254,"lo1":-89.0895,"lo2":-89.0444,"dy":0.0017,"dx":0.0017,"nx":28,"ny":28,"refTime":"2025-05-27T09:00:00:Z","depth":"2","parameterNumber":2,"parameterNumberName":"U-component_of_CURRENTS"},"data":[0,0,0,0,0,0,0,0,0,0,0,0,0,0,0,0,0,0,0,0,0,0,0,0,0,0,0,0,0,0,0,0,0,0,0,0,0,0,0,0,0,0,0,0,0,0,0,0,0,0,0,0,0,0,0,0,0,0,0.1198,0.1199,0,0.1318,0.132,0.1322,0.1397,0.1397,0.1397,0.1397,0.1571,0.1576,0.158,0,0,0,0,0,0,0,0,0,0,0,0,0,0.1101,0.1102,0.1198,0.1199,0.12,0.1318,0.132,0.1322,0.1397,0.1397,0.1397,0.1397,0.157,0.1575,0.1581,0,0,0,0,0,0,0,0,0,0,0,0,0,0.1177,0.1102,0.1198,0.125,0.1255,0.1318,0.132,0.1323,0.1397,0.1397,0.1397,0.1397,0.1568,0.1575,0.1581,0.1619,0,0,0.1602,0.1605,0,0,0,0,0,0,0,0,0.1172,0.1181,0.1241,0.1246,0.1252,0.134,0.135,0.1423,0.1396,0.1346,0.1397,0.1397,0.1497,0.151,0.1535,0.1627,0.1635,0.1603,0.1607,0.161,0.1612,0,0,0,0,0,0,0,0.1167,0.1176,0.1249,0.1242,0.1249,0.129,0.1301,0.1364,0.1422,0.135,0.1355,0.1364,0.1501,0.1528,0.154,0.1637,0.1602,0.1608,0.1613,0.1615,0.184,0.1842,0,0,0,0,0,0,0.1142,0.1171,0.1245,0.1252,0.1209,0.1291,0.1303,0.1314,0.142,0.1436,0.1364,0.1367,0.1517,0.1532,0.1546,0.167,0.161,0.1616,0.162,0.1838,0.184,0.1842,0,0,0,0,0,0,0.114,0.1148,0.124,0.1212,0.1226,0.1292,0.1304,0.1316,0.1373,0.1429,0.1446,0.141,0.1518,0.1537,0.1633,0.1675,0.1619,0.1625,0.1836,0.1839,0.1841,0.1872,0,0,0,0,0,0,0.1137,0.1146,0.1157,0.121,0.1226,0.129,0.1304,0.1318,0.1375,0.1381,0.1475,0.1489,0.1519,0.1622,0.1639,0.1683,0.163,0.1833,0.1837,0.184,0.1868,0.1875,0.1881,0,0,0,0,0,0.1133,0.1143,0.1157,0.1166,0.1235,0.129,0.1304,0.1353,0.1377,0.1405,0.1475,0.1488,0.1656,0.163,0.1649,0.1696,0.1832,0.1836,0.184,0.1865,0.1874,0.1881,0,0,0,0,0,0,0.1108,0.1153,0.1169,0.1193,0.1242,0.1302,0.1328,0.137,0.1448,0.146,0.1521,0.1541,0.1632,0.1665,0.1634,0.177,0.1743,0.1752,0.1756,0.1764,0.1771,0.1804,0.1636,0,0,0,0,0,0.1104,0.1122,0.1175,0.1195,0.1217,0.128,0.1313,0.1351,0.1417,0.1453,0.152,0.1592,0.1661,0.1713,0.1765,0.1856,0.1906,0.1896,0.1902,0.1907,0.1948,0.2082,0.2105,0.1856,0.1856,0.1856,0,0,0.1097,0.1124,0.1135,0.1191,0.123,0.1276,0.1302,0.1355,0.1413,0.146,0.1563,0.1614,0.1686,0.1774,0.1819,0.1815,0.1991,0.1913,0.1917,0.1956,0.2089,0.2114,0.2135,0.1859,0.1859,0.1858,0,0,0.1094,0.1119,0.1138,0.1179,0.1239,0.1281,0.1303,0.1382,0.1437,0.1529,0.1579,0.1668,0.1767,0.1841,0.1886,0.1968,0.201,0.1977,0.206,0.2187,0.221,0.223,0.2267,0.2291,0.1995,0.1995,0.1995,0,0.1085,0.113,0.1154,0.1189,0.1249,0.1288,0.1354,0.1397,0.1504,0.1594,0.156,0.1777,0.1801,0.1973,0.198,0.1985,0.2045,0.2019,0.2198,0.222,0.224,0.2274,0.23,0.1997,0.1997,0.1997,0.1996,0,0.1105,0.1151,0.1167,0.1231,0.1291,0.135,0.1419,0.1497,0.1561,0.1634,0.1805,0.1855,0.2012,0.2004,0.201,0.2187,0.2172,0.2176,0.2178,0.2268,0.2295,0.2322,0.2,0.1999,0.1999,0.1998,0,0,0.1085,0.1169,0.1179,0.1257,0.1338,0.1409,0.1499,0.1648,0.176,0.1835,0.2021,0.2094,0.2161,0.2219,0.2254,0.2336,0.2464,0.2323,0.2328,0.2358,0.2712,0.2533,0.2543,0.2522,0.2528,0.2533,0.2651,0,0.1116,0.1219,0.1247,0.1377,0.147,0.1546,0.1648,0.1779,0.1871,0.2035,0.2138,0.2276,0.2232,0.2313,0.2406,0.2464,0.2548,0.2429,0.2624,0.2628,0.246,0.2574,0.2392,0.2471,0.2677,0.2681,0.2684,0,0.1169,0.1242,0.1381,0.1552,0.1596,0.1659,0.1895,0.1981,0.2176,0.2243,0.2413,0.2495,0.2661,0.2579,0.2775,0.2714,0.2733,0.274,0.2746,0.2602,0.2502,0.2429,0.2511,0.2729,0.2725,0.2722,0.2719,0,0.1269,0.1366,0.1506,0.1555,0.1712,0.181,0.1897,0.2077,0.2162,0.2388,0.2453,0.2704,0.2765,0.2916,0.2907,0.2891,0.3064,0.3048,0.2908,0.2891,0.2787,0.2751,0.3205,0.3205,0.3205,0.3205,0.3204,0,0.1368,0.1484,0.1552,0.1647,0.1787,0.1895,0.2053,0.2158,0.2309,0.2397,0.2568,0.2654,0.2849,0.2956,0.3009,0.3017,0.3163,0.2956,0.2944,0.2778,0.2742,0.3014,0.299,0.3209,0.3208,0.3207,0.3206,0,0.1481,0.1547,0.1691,0.1821,0.185,0.1956,0.2047,0.212,0.227,0.2385,0.2455,0.2635,0.2764,0.2904,0.3076,0.3054,0.3137,0.309,0.2822,0.2775,0.286,0.2836,0.3026,0.3022,0.3018,0.3015,0.3012,0,0.156,0.1635,0.1755,0.1754,0.1792,0.1902,0.1932,0.2087,0.2121,0.2333,0.2363,0.2546,0.2628,0.2797,0.2852,0.296,0.3023,0.2782,0.2719,0.289,0.2859,0.2842,0.2824,0.2578,0.2572,0.2567,0.2563,0,0.1592,0.1621,0.1668,0.1692,0.1709,0.1769,0.1823,0.1863,0.2027,0.2124,0.2245,0.2364,0.2495,0.2538,0.2612,0.2634,0.2774,0.2677,0.3023,0.2612,0.2467,0.2435,0.2434,0.2519,0.2523,0.2527,0.2529,0.2531,0.1499,0.1501,0.1495,0.1527,0.1557,0.1601,0.1626,0.1685,0.1786,0.1919,0.2054,0.215,0.2253,0.229,0.2291,0.2302,0.2471,0.2419,0.2437,0.2459,0.2347,0.22,0.2177,0.2179,0.2181,0.2183,0.2185,0,0.1287,0.129,0.1288,0.1326,0.1335,0.1436,0.1493,0.1514,0.1595,0.1728,0.1839,0.1761,0.1833,0.1956,0.1929,0.1946,0.1945,0.1872,0.1903,0.1948,0.1988,0.1853,0.1552,0.155,0.1548,0.1546,0,0,0.1128,0.1054,0.1097,0.107,0.1131,0.115,0.1194,0.1276,0.1367,0.1418,0.148,0.1663,0.1838,0.164,0.1663,0.1619,0.1744,0.1538,0.2049,0.2125,0.2161,0.2311,0.2154,0,0,0,0,0]},{"header":{"parameterUnit":"m.s-1","parameterCategory":2,"la1":30.2991,"la2":30.254,"lo1":-89.0895,"lo2":-89.0444,"dy":0.0017,"dx":0.0017,"nx":28,"ny":28,"refTime":"2025-05-27T09:00:00:Z","depth":"2","parameterNumber":3,"parameterNumberName":"V-component_of_CURRENTS"},"data":[0,0,0,0,0,0,0,0,0,0,0,0,0,0,0,0,0,0,0,0,0,0,0,0,0,0,0,0,0,0,0,0,0,0,0,0,0,0,0,0,0,0,0,0,0,0,0,0,0,0,0,0,0,0,0,0,0,0,-0.0558,-0.0559,0,-0.0636,-0.0637,-0.0638,-0.0715,-0.0717,-0.0718,-0.0719,-0.0745,-0.0745,-0.0745,0,0,0,0,0,0,0,0,0,0,0,0,0,-0.0503,-0.0503,-0.0558,-0.0559,-0.056,-0.0636,-0.0637,-0.0638,-0.0715,-0.0717,-0.0718,-0.0719,-0.0745,-0.0745,-0.0745,0,0,0,0,0,0,0,0,0,0,0,0,0,-0.0548,-0.0503,-0.0557,-0.0607,-0.0613,-0.0636,-0.0637,-0.0638,-0.0715,-0.0717,-0.0718,-0.072,-0.0745,-0.0745,-0.0745,-0.0711,0,0,-0.0744,-0.0743,0,0,0,0,0,0,0,0,-0.0545,-0.055,-0.0599,-0.0604,-0.061,-0.0668,-0.0628,-0.066,-0.0715,-0.0676,-0.0719,-0.072,-0.0713,-0.0716,-0.0728,-0.0712,-0.0714,-0.0743,-0.0743,-0.0743,-0.0743,0,0,0,0,0,0,0,-0.0542,-0.0547,-0.0589,-0.06,-0.0607,-0.0636,-0.0644,-0.0635,-0.0684,-0.0679,-0.0685,-0.0694,-0.0716,-0.0728,-0.0729,-0.0714,-0.0744,-0.0743,-0.0743,-0.0743,-0.0693,-0.0692,0,0,0,0,0,0,-0.053,-0.0544,-0.0586,-0.0591,-0.0581,-0.0635,-0.0644,-0.0647,-0.0685,-0.0693,-0.0692,-0.0697,-0.0728,-0.0729,-0.073,-0.0707,-0.0743,-0.0743,-0.0743,-0.0694,-0.0693,-0.0691,0,0,0,0,0,0,-0.0528,-0.0532,-0.0583,-0.057,-0.0578,-0.0634,-0.0638,-0.0648,-0.067,-0.0696,-0.0703,-0.0705,-0.0729,-0.073,-0.073,-0.0708,-0.0743,-0.0742,-0.0695,-0.0694,-0.0692,-0.0651,0,0,0,0,0,0,-0.0526,-0.0531,-0.0532,-0.0569,-0.0579,-0.0594,-0.0637,-0.0649,-0.0672,-0.068,-0.0708,-0.0712,-0.073,-0.0731,-0.073,-0.0708,-0.0742,-0.0697,-0.0694,-0.0693,-0.0654,-0.0648,-0.0643,0,0,0,0,0,-0.0524,-0.0513,-0.0531,-0.0537,-0.0577,-0.0593,-0.0601,-0.0646,-0.0671,-0.0673,-0.0698,-0.0712,-0.0717,-0.073,-0.0729,-0.0706,-0.0698,-0.0695,-0.0693,-0.0656,-0.0649,-0.0643,0,0,0,0,0,0,-0.0488,-0.0521,-0.0542,-0.0542,-0.0566,-0.0607,-0.0613,-0.0641,-0.0663,-0.0674,-0.07,-0.0705,-0.0699,-0.0702,-0.0716,-0.0685,-0.0707,-0.0705,-0.068,-0.0673,-0.0668,-0.0625,-0.0742,0,0,0,0,0,-0.0479,-0.0482,-0.0516,-0.0517,-0.0526,-0.0569,-0.0583,-0.0613,-0.0637,-0.0651,-0.0672,-0.0685,-0.0684,-0.0681,-0.0688,-0.0663,-0.067,-0.0646,-0.0641,-0.0637,-0.06,-0.0587,-0.0577,-0.0683,-0.0683,-0.0683,0,0,-0.0466,-0.0484,-0.0487,-0.051,-0.0534,-0.0547,-0.0581,-0.0599,-0.0614,-0.0645,-0.0665,-0.0672,-0.0676,-0.0664,-0.0658,-0.0664,-0.0621,-0.0634,-0.063,-0.0595,-0.0583,-0.0573,-0.0563,-0.0682,-0.0682,-0.0682,0,0,-0.0442,-0.0455,-0.0455,-0.0473,-0.0505,-0.0527,-0.053,-0.057,-0.0592,-0.0607,-0.0629,-0.0612,-0.0633,-0.0615,-0.0611,-0.0571,-0.0602,-0.0583,-0.0511,-0.0499,-0.049,-0.0482,-0.0528,-0.0524,-0.0571,-0.0571,-0.0571,0,-0.0429,-0.0434,-0.0456,-0.0464,-0.0471,-0.0516,-0.0515,-0.0543,-0.0581,-0.0559,-0.0612,-0.0579,-0.0602,-0.0534,-0.0537,-0.0556,-0.0577,-0.0539,-0.0492,-0.0484,-0.0476,-0.0524,-0.052,-0.0569,-0.0569,-0.0569,-0.0569,0,-0.0413,-0.042,-0.0417,-0.0442,-0.0446,-0.0452,-0.0486,-0.0489,-0.052,-0.0527,-0.0485,-0.0506,-0.0458,-0.0483,-0.0508,-0.0441,-0.0488,-0.0498,-0.0508,-0.0463,-0.0517,-0.0514,-0.0565,-0.0566,-0.0567,-0.0567,0,0,-0.0394,-0.0402,-0.0411,-0.0396,-0.0433,-0.0422,-0.0432,-0.0415,-0.0379,-0.0414,-0.0337,-0.0359,-0.0328,-0.0318,-0.0328,-0.0334,-0.034,-0.0391,-0.0392,-0.0436,-0.0358,-0.0432,-0.0437,-0.0348,-0.0346,-0.0344,-0.0437,0,-0.0383,-0.0364,-0.0384,-0.0364,-0.0347,-0.0367,-0.0342,-0.0328,-0.034,-0.0279,-0.026,-0.0207,-0.0278,-0.0236,-0.0243,-0.0296,-0.032,-0.0316,-0.0393,-0.0395,-0.0465,-0.0429,-0.0398,-0.048,-0.0434,-0.0434,-0.0433,0,-0.0381,-0.0358,-0.032,-0.0271,-0.0262,-0.0253,-0.0187,-0.0171,-0.0105,-0.0113,-0.0047,-0.0024,0.0024,-0.0063,-0.0119,-0.0116,-0.0222,-0.0301,-0.0306,-0.0371,-0.0459,-0.0507,-0.0476,-0.0428,-0.0428,-0.0429,-0.0429,0,-0.0328,-0.0321,-0.0268,-0.0263,-0.0214,-0.0178,-0.0147,-0.0096,-0.0069,0.0024,0.0036,0.0126,0.0108,0.008,-0.0081,-0.0085,-0.0197,-0.0214,-0.0388,-0.0398,-0.0379,-0.0389,-0.0265,-0.0265,-0.0265,-0.0265,-0.0264,0,-0.0303,-0.0272,-0.0233,-0.0198,-0.012,-0.0093,-0.0013,0.0012,0.0078,0.0144,0.0154,0.0186,0.0126,0.0065,-0.0021,-0.0204,-0.0147,-0.0358,-0.0405,-0.0372,-0.038,-0.0327,-0.0333,-0.0268,-0.0268,-0.0267,-0.0266,0,-0.0275,-0.0244,-0.0181,-0.0112,-0.0091,-0.0025,0.0021,0.0083,0.0105,0.0184,0.0225,0.0192,0.0115,0.0016,-0.01,-0.0211,-0.0305,-0.0406,-0.0397,-0.0439,-0.0529,-0.0532,-0.0541,-0.0544,-0.0546,-0.0548,-0.055,0,-0.0271,-0.0228,-0.0134,-0.0097,-0.0077,-0.0004,0.0053,0.01,0.0152,0.0193,0.0251,0.0173,0.0157,-0.0074,-0.0234,-0.0383,-0.0416,-0.0527,-0.0504,-0.0502,-0.0546,-0.0545,-0.0545,-0.0492,-0.0493,-0.0494,-0.0495,0,-0.0275,-0.0225,-0.0165,-0.007,-0.0013,0.0059,0.014,0.0188,0.0277,0.03,0.0364,0.0372,0.0117,-0.0019,-0.0323,-0.0423,-0.0463,-0.0554,-0.0518,-0.0432,-0.0464,-0.0506,-0.0504,-0.0502,-0.0502,-0.0501,-0.0501,-0.05,-0.0294,-0.0249,-0.0144,-0.0055,0.0026,0.016,0.0246,0.0328,0.0441,0.0541,0.049,0.0475,0.0223,-0.0107,-0.032,-0.0564,-0.0568,-0.063,-0.0623,-0.0616,-0.0598,-0.0632,-0.0703,-0.0703,-0.0704,-0.0704,-0.0704,0,-0.0299,-0.0222,-0.0147,0.0014,0.0134,0.0183,0.0338,0.043,0.0591,0.0634,0.0671,0.0471,0.0249,-0.001,-0.0368,-0.0607,-0.0592,-0.0678,-0.0584,-0.0577,-0.057,-0.0545,-0.0639,-0.0639,-0.0639,-0.0639,0,0,-0.0295,-0.0193,-0.0119,0.0097,0.0213,0.0404,0.0519,0.063,0.0697,0.0761,0.0761,0.0667,0.034,0.0107,-0.0223,-0.0413,-0.0438,-0.0462,-0.0498,-0.0345,-0.0334,-0.054,-0.0495,0,0,0,0,0]}],[{"header":{"parameterUnit":"m.s-1","parameterCategory":2,"la1":30.2991,"la2":30.254,"lo1":-89.0895,"lo2":-89.0444,"dy":0.0017,"dx":0.0017,"nx":28,"ny":28,"refTime":"2025-05-27T09:00:00:Z","depth":"4","parameterNumber":2,"parameterNumberName":"U-component_of_CURRENTS"},"data":[0,0,0,0,0,0,0,0,0,0,0,0,0,0,0,0,0,0,0,0,0,0,0,0,0,0,0,0,0,0,0,0,0,0,0,0,0,0,0,0,0,0,0,0,0,0,0,0,0,0,0,0,0,0,0,0,0,0,0.0507,0.0507,0,0.057,0.0571,0.0572,0.0654,0.0655,0.0656,0.0657,0.0746,0.0747,0.0748,0,0,0,0,0,0,0,0,0,0,0,0,0,0.0443,0.0444,0.0507,0.0507,0.0508,0.057,0.0571,0.0572,0.0653,0.0655,0.0656,0.0657,0.0745,0.0747,0.0749,0,0,0,0,0,0,0,0,0,0,0,0,0,0.0487,0.0444,0.0506,0.0554,0.0559,0.057,0.0571,0.0572,0.0653,0.0655,0.0657,0.0658,0.0745,0.0747,0.0749,0.0726,0,0,0.0755,0.0756,0,0,0,0,0,0,0,0,0.0484,0.0489,0.0547,0.0551,0.0556,0.0604,0.0581,0.0624,0.0653,0.0619,0.0657,0.0659,0.0698,0.0704,0.0715,0.073,0.0734,0.0755,0.0756,0.0757,0.0757,0,0,0,0,0,0,0,0.0481,0.0487,0.0534,0.0547,0.0553,0.0568,0.0577,0.059,0.065,0.0623,0.0628,0.0631,0.0702,0.0712,0.0717,0.0736,0.0755,0.0757,0.0758,0.0759,0.0859,0.086,0,0,0,0,0,0,0.0468,0.0484,0.0532,0.0535,0.0522,0.0568,0.0577,0.0589,0.065,0.066,0.063,0.0635,0.0708,0.0715,0.0721,0.0814,0.0757,0.0759,0.076,0.0858,0.0859,0.0861,0,0,0,0,0,0,0.0466,0.0472,0.0529,0.0509,0.0517,0.0567,0.0579,0.0589,0.0637,0.0655,0.0667,0.0671,0.071,0.0718,0.0763,0.0813,0.076,0.0761,0.0856,0.0858,0.086,0.0925,0,0,0,0,0,0,0.0464,0.0471,0.0485,0.0508,0.0518,0.0559,0.0577,0.0589,0.0633,0.0641,0.0693,0.0701,0.0712,0.076,0.0765,0.0815,0.0763,0.0854,0.0857,0.0859,0.0921,0.0929,0.0936,0,0,0,0,0,0.0462,0.0475,0.0485,0.0492,0.0532,0.056,0.0567,0.0609,0.0633,0.0658,0.0694,0.0702,0.0782,0.0763,0.0768,0.082,0.0852,0.0856,0.0859,0.0918,0.0928,0.0936,0,0,0,0,0,0,0.0458,0.0485,0.0497,0.0519,0.0546,0.0574,0.0598,0.0624,0.0671,0.0688,0.0711,0.0721,0.0777,0.0784,0.0762,0.0857,0.0823,0.0827,0.0865,0.0875,0.0882,0.09,0.0764,0,0,0,0,0,0.0458,0.048,0.0503,0.0524,0.0538,0.0572,0.0593,0.0622,0.0657,0.0682,0.0716,0.0754,0.0787,0.0821,0.0839,0.0889,0.088,0.0928,0.0936,0.0942,0.0961,0.0961,0.097,0.0872,0.0872,0.0872,0,0,0.0461,0.048,0.0492,0.0525,0.055,0.058,0.0592,0.0632,0.0675,0.0681,0.0754,0.0773,0.0801,0.0858,0.0887,0.088,0.0968,0.0947,0.0952,0.0967,0.0966,0.0975,0.0983,0.0874,0.0874,0.0874,0,0,0.0474,0.0496,0.0518,0.0543,0.0582,0.0602,0.0621,0.0664,0.0707,0.0762,0.0781,0.0827,0.0884,0.0915,0.0938,0.0996,0.0995,0.1018,0.1091,0.1091,0.1099,0.1106,0.1114,0.1121,0.1038,0.1039,0.1039,0,0.0478,0.051,0.0529,0.0559,0.0586,0.0617,0.0653,0.0693,0.0751,0.0788,0.0798,0.0891,0.091,0.0985,0.1023,0.1015,0.1021,0.1054,0.1101,0.1107,0.1113,0.1119,0.1126,0.1042,0.1042,0.1041,0.1041,0,0.0505,0.054,0.0557,0.0605,0.0635,0.0672,0.0718,0.0765,0.0815,0.0855,0.0939,0.0966,0.1028,0.1048,0.1066,0.1136,0.1129,0.1094,0.1075,0.1127,0.113,0.1136,0.1047,0.1046,0.1045,0.1044,0,0,0.0493,0.0562,0.0571,0.0607,0.0667,0.0696,0.0763,0.0832,0.0894,0.0954,0.1029,0.1103,0.1129,0.1157,0.1179,0.1206,0.1255,0.1196,0.1194,0.1202,0.1278,0.1238,0.124,0.1237,0.1238,0.1239,0.1265,0,0.0513,0.0571,0.0606,0.0676,0.071,0.0762,0.0819,0.0888,0.0958,0.1033,0.1083,0.1156,0.1169,0.1215,0.1244,0.1245,0.1275,0.1253,0.1229,0.1229,0.1185,0.1246,0.1243,0.127,0.1271,0.1272,0.1272,0,0.0526,0.0568,0.0633,0.0718,0.0739,0.0793,0.0897,0.0957,0.1057,0.1114,0.1197,0.1231,0.1307,0.1288,0.1336,0.1329,0.1327,0.1318,0.1317,0.1264,0.12,0.1206,0.1283,0.1282,0.1281,0.1281,0.128,0,0.0498,0.0588,0.0645,0.0675,0.0769,0.0828,0.089,0.0992,0.1048,0.1178,0.1229,0.1308,0.1355,0.1363,0.1382,0.1366,0.1409,0.1358,0.1318,0.1315,0.1311,0.1303,0.1383,0.1383,0.1383,0.1383,0.1383,0,0.0498,0.0544,0.065,0.0678,0.0756,0.0837,0.0932,0.1007,0.1112,0.118,0.1279,0.1335,0.138,0.1411,0.1404,0.1397,0.1422,0.1353,0.1326,0.1339,0.1334,0.1315,0.1307,0.1384,0.1384,0.1384,0.1383,0,0.0454,0.0521,0.0583,0.0697,0.0742,0.0801,0.093,0.099,0.1115,0.1204,0.1245,0.1361,0.1421,0.145,0.1465,0.1423,0.1409,0.1396,0.1439,0.1409,0.1307,0.1302,0.1342,0.1341,0.134,0.1339,0.1339,0,0.0437,0.0465,0.0572,0.0609,0.0672,0.0776,0.0832,0.0969,0.1036,0.1208,0.1234,0.1349,0.1414,0.1413,0.1444,0.1436,0.1417,0.1399,0.134,0.1337,0.1307,0.1303,0.1299,0.1337,0.1337,0.1337,0.1337,0,0.0389,0.0427,0.0472,0.0544,0.0619,0.0695,0.0806,0.0846,0.1006,0.1109,0.1217,0.1276,0.1349,0.1379,0.1405,0.1385,0.1401,0.1389,0.1389,0.1334,0.1331,0.1301,0.1299,0.1334,0.1334,0.1334,0.1334,0,0.0339,0.0353,0.041,0.0482,0.0555,0.0626,0.0688,0.0795,0.0878,0.1078,0.1102,0.1237,0.1335,0.1354,0.1363,0.1366,0.1332,0.127,0.1275,0.1279,0.1249,0.1235,0.1206,0,0,0,0,0,0.029,0.0311,0.0351,0.0431,0.0498,0.0559,0.0674,0.0743,0.0893,0.0941,0.1033,0.1106,0.1184,0.1244,0.1232,0.1313,0.1316,0.1291,0.1241,0.1317,0.132,0.1291,0,0,0,0,0,0,0.0259,0.0285,0.0325,0.0384,0.0434,0.0516,0.059,0.0686,0.0735,0.0882,0.0928,0.1038,0.1116,0.118,0.121,0.1226,0.1172,0.1367,0.1365,0.1315,0.1318,0.1321,0.1292,0,0,0,0,0]},{"header":{"parameterUnit":"m.s-1","parameterCategory":2,"la1":30.2991,"la2":30.254,"lo1":-89.0895,"lo2":-89.0444,"dy":0.0017,"dx":0.0017,"nx":28,"ny":28,"refTime":"2025-05-27T09:00:00:Z","depth":"4","parameterNumber":3,"parameterNumberName":"V-component_of_CURRENTS"},"data":[0,0,0,0,0,0,0,0,0,0,0,0,0,0,0,0,0,0,0,0,0,0,0,0,0,0,0,0,0,0,0,0,0,0,0,0,0,0,0,0,0,0,0,0,0,0,0,0,0,0,0,0,0,0,0,0,0,0,0.0247,0.0247,0,0.0192,0.0191,0.019,0.0159,0.0159,0.016,0.016,0.0036,0.0033,0.003,0,0,0,0,0,0,0,0,0,0,0,0,0,0.0277,0.0277,0.0247,0.0247,0.0246,0.0192,0.0191,0.019,0.0159,0.0159,0.016,0.016,0.0037,0.0033,0.0029,0,0,0,0,0,0,0,0,0,0,0,0,0,0.0245,0.0277,0.0247,0.0226,0.0224,0.0192,0.0191,0.019,0.0159,0.0159,0.016,0.016,0.0039,0.0034,0.0029,-0.0006,0,0,0.0013,0.0011,0,0,0,0,0,0,0,0,0.0247,0.0244,0.023,0.0227,0.0225,0.0184,0.0156,0.0122,0.0159,0.0182,0.016,0.016,0.0081,0.0072,0.0059,-0.0012,-0.0017,0.0013,0.001,0.0007,0.0006,0,0,0,0,0,0,0,0.0249,0.0246,0.0223,0.0229,0.0226,0.0202,0.0198,0.0149,0.0128,0.018,0.0178,0.0175,0.0079,0.0064,0.0056,-0.0019,0.0013,0.0008,0.0005,0.0003,-0.0167,-0.0168,0,0,0,0,0,0,0.0263,0.0248,0.0225,0.0222,0.0239,0.0202,0.0197,0.0196,0.013,0.0121,0.0175,0.0174,0.0073,0.0062,0.0052,0.0,0.0008,0.0003,-0.0,-0.0166,-0.0167,-0.0169,0,0,0,0,0,0,0.0264,0.0261,0.0227,0.0235,0.0229,0.0202,0.02,0.0194,0.018,0.0127,0.0117,0.0166,0.0073,0.0059,0.0006,-0.0004,0.0,-0.0004,-0.0164,-0.0166,-0.0168,-0.0098,0,0,0,0,0,0,0.0265,0.0262,0.0264,0.0236,0.023,0.0211,0.02,0.0193,0.0179,0.0177,0.0116,0.0105,0.0072,0.0013,0.0001,-0.0011,-0.0008,-0.0162,-0.0165,-0.0167,-0.0099,-0.0098,-0.0097,0,0,0,0,0,0.0266,0.0272,0.0265,0.0262,0.0234,0.0211,0.0205,0.0184,0.0178,0.0172,0.0129,0.0107,-0.0014,0.0009,-0.0006,-0.002,-0.0161,-0.0164,-0.0167,-0.0099,-0.0098,-0.0097,0,0,0,0,0,0,0.0283,0.0269,0.026,0.0261,0.0239,0.0207,0.0204,0.0185,0.0147,0.0146,0.0094,0.008,0.0028,-0.0014,0.0012,-0.0082,-0.0094,-0.01,-0.0038,-0.0037,-0.0036,-0.0057,-0.0012,0,0,0,0,0,0.0289,0.0293,0.0267,0.0268,0.0261,0.0231,0.0219,0.0204,0.0169,0.0154,0.011,0.0054,0.0001,-0.0029,-0.008,-0.0129,-0.0171,-0.0154,-0.0153,-0.0151,-0.0182,-0.0254,-0.0261,-0.018,-0.018,-0.018,0,0,0.0299,0.029,0.0293,0.0272,0.0257,0.0251,0.0224,0.0211,0.0201,0.0144,0.0113,0.0059,-0.0012,-0.0062,-0.0091,-0.0096,-0.0188,-0.0155,-0.0153,-0.0186,-0.0258,-0.0266,-0.0273,-0.0182,-0.0182,-0.0181,0,0,0.0323,0.031,0.0324,0.0308,0.0289,0.0267,0.0265,0.023,0.0209,0.0171,0.0123,0.0059,-0.001,-0.007,-0.0107,-0.0141,-0.0179,-0.0157,-0.017,-0.0237,-0.0244,-0.0251,-0.0265,-0.0274,-0.0158,-0.0158,-0.0158,0,0.0335,0.0338,0.0322,0.0327,0.031,0.0279,0.0274,0.0255,0.0205,0.0165,0.017,0.0025,-0.0017,-0.011,-0.0121,-0.0137,-0.017,-0.0155,-0.0233,-0.0242,-0.025,-0.0263,-0.0274,-0.0155,-0.0155,-0.0155,-0.0156,0,0.037,0.0365,0.0369,0.0366,0.0348,0.0335,0.0306,0.0278,0.0247,0.0206,0.0112,0.0044,-0.0055,-0.007,-0.0104,-0.0197,-0.0195,-0.0214,-0.0225,-0.0253,-0.0266,-0.0278,-0.0151,-0.0152,-0.0153,-0.0153,0,0,0.0394,0.0393,0.0392,0.0375,0.0356,0.0335,0.0321,0.0264,0.0225,0.0173,0.0103,0.0009,-0.0053,-0.0105,-0.0161,-0.0223,-0.0275,-0.0246,-0.025,-0.024,-0.0395,-0.0348,-0.0357,-0.0308,-0.0311,-0.0313,-0.036,0,0.0412,0.0416,0.0415,0.0399,0.0379,0.0344,0.0327,0.0276,0.0221,0.0153,0.0061,-0.0017,-0.0056,-0.0108,-0.018,-0.0262,-0.0315,-0.026,-0.039,-0.0393,-0.0333,-0.0373,-0.0323,-0.037,-0.0372,-0.0375,-0.0376,0,0.0423,0.0419,0.041,0.0369,0.0361,0.0357,0.0276,0.0259,0.017,0.0123,0.0021,-0.0043,-0.0155,-0.017,-0.0329,-0.0293,-0.0354,-0.0403,-0.0406,-0.0409,-0.0372,-0.0354,-0.0399,-0.0397,-0.0395,-0.0394,-0.0392,0,0.0387,0.0393,0.0374,0.0365,0.0342,0.0321,0.0304,0.0233,0.0211,0.0096,0.0066,-0.0084,-0.0136,-0.0262,-0.0353,-0.0354,-0.0502,-0.0507,-0.052,-0.0514,-0.0568,-0.0561,-0.0631,-0.0631,-0.0631,-0.0631,-0.0631,0,0.0352,0.033,0.036,0.0338,0.0323,0.0306,0.027,0.0226,0.018,0.0149,0.0046,-0.0004,-0.0167,-0.0256,-0.036,-0.0466,-0.0507,-0.0543,-0.0545,-0.053,-0.0519,-0.0573,-0.0566,-0.0632,-0.0632,-0.0632,-0.0631,0,0.0283,0.0296,0.0284,0.0292,0.0299,0.0283,0.0296,0.0276,0.0227,0.0189,0.0164,0.0056,-0.0069,-0.0203,-0.0382,-0.0444,-0.0566,-0.0592,-0.0531,-0.0524,-0.0528,-0.0517,-0.0625,-0.0624,-0.0624,-0.0623,-0.0623,0,0.024,0.0236,0.0271,0.0291,0.0297,0.0298,0.0313,0.0289,0.0282,0.0228,0.0215,0.0107,0.0017,-0.0177,-0.0335,-0.0519,-0.0545,-0.0587,-0.0611,-0.0548,-0.0538,-0.0528,-0.0518,-0.0622,-0.0621,-0.0621,-0.0621,0,0.0195,0.0223,0.0237,0.0281,0.0307,0.033,0.0347,0.0353,0.0331,0.0305,0.0251,0.0141,0.0016,-0.0159,-0.029,-0.043,-0.0558,-0.0581,-0.0584,-0.0607,-0.0545,-0.0533,-0.0524,-0.0619,-0.0619,-0.0619,-0.062,0,0.0202,0.0212,0.0261,0.0283,0.0323,0.0347,0.0355,0.0367,0.0363,0.0319,0.0303,0.0159,0.0073,-0.0111,-0.0242,-0.0366,-0.0409,-0.0444,-0.0455,-0.0459,-0.0403,-0.0299,-0.0318,0,0,0,0,0,0.0212,0.0228,0.0267,0.0294,0.0329,0.0339,0.0379,0.039,0.0382,0.0357,0.0333,0.0214,0.0024,-0.0066,-0.0185,-0.0248,-0.0439,-0.039,-0.0488,-0.0606,-0.0609,-0.0569,0,0,0,0,0,0,0.0232,0.0266,0.0267,0.0296,0.031,0.0344,0.0363,0.0367,0.0352,0.0335,0.0234,0.0189,-0.0003,0.0082,-0.0191,-0.023,-0.0303,-0.0483,-0.0485,-0.0605,-0.0607,-0.0609,-0.0569,0,0,0,0,0]}]]